Regional Weather Roundup
Issued by NWS

Home | Current Version | Previous Version | Graphics & Text | Print | Product List | Glossary On
Versions: 1 2 3 4 5 6 7 8 9 10 11 12 13 14 15 16 17 18 19 20 21 22 23 24 25 26 27 28 29 30 31 32 33 34 35 36 37 38 39 40 41 42 43 44 45 46 47 48 49 50
000
ASUS45 KTFX 241810
RWRMT
MONTANA REGIONAL WEATHER ROUNDUP
NATIONAL WEATHER SERVICE GREAT FALLS MT
1200 PM MDT SUN MAY 24 2015

NOTE: "FAIR" INDICATES FEW OR NO CLOUDS BELOW 12000 FEET WITH NO
SIGNIFICANT WEATHER AND/OR OBSTRUCTIONS TO VISIBILITY.

MTZ001>007-043-241900-
WEST OF THE DIVIDE

CITY           SKY/WX    TMP DP  RH WIND       PRES   REMARKS
KALISPELL      CLEAR     70  36  28 S6        30.00F
MISSOULA       MOSUNNY   69  36  29 SE20G25   30.01F
BUTTE          CLOUDY    53  33  46 NE10      30.07F
MULLAN PASS    PTSUNNY   52  35  52 VRB3      30.08F
DEER LODGE       N/A     54  37  54 NE7       30.11S
EUREKA           N/A     70  36  28 CALM      30.00F
HAMILTON         N/A     63  43  48 NW2       30.02S
LIBBY            N/A     72  39  30 CALM      29.99F
PLAINS           N/A     70  42  36 S1        30.00F
RONAN            N/A     66  41  40 W2        30.06F
THOMPSON FALLS   N/A     72  43  35 NE12      30.01F
$$

MTZ008-052>055-241900-
SOUTHWEST MONTANA

CITY           SKY/WX    TMP DP  RH WIND       PRES   REMARKS
BOZEMAN        PTSUNNY   53  45  74 S3        30.05S
DILLON         CLOUDY    59  38  45 NE15G24   30.02F
W YELLOWSTONE  CLOUDY    50  34  53 N12       30.01S
THREE FORKS      N/A     58  58 100 N1        30.03F
TWIN BRIDGES     N/A     58  38  47 NW17      30.01F
$$

MTZ009-010-012-014-046-048-049-054-241900-
EAST SLOPES AND CENTRAL MONTANA

CITY           SKY/WX    TMP DP  RH WIND       PRES   REMARKS
CUT BANK       PTSUNNY   60  41  49 S6        30.08F
GREAT FALLS    CLOUDY    56  45  66 E10       30.07F
MALMSTROM AFB  PTSUNNY   56  48  74 SE5       30.08F
HELENA         CLOUDY    59  42  53 NE9       30.05S
CONRAD           N/A     61  47  59 NE2       30.10F
$$

MTZ011-013-016-021-045-047-050-051-241900-
NORTH CENTRAL MONTANA

CITY           SKY/WX    TMP DP  RH WIND       PRES   REMARKS
HAVRE          SUNNY     72  41  32 E15       30.04F
LEWISTOWN      CLOUDY    55  46  71 E10       30.07F
N BAR RANCH    CLOUDY    50  46  87 CALM      30.10S
CHINOOK          N/A     70  43  37 E7G16     30.03F
FORT BENTON      N/A     64  45  48 E5        30.07F
$$

MTZ017>020-022>027-061-062-241900-
NORTHEAST MONTANA

CITY           SKY/WX    TMP DP  RH WIND       PRES   REMARKS
GLASGOW        SUNNY     70  42  36 VRB3      30.01F
JORDAN           N/A     65  45  48 E9        30.01F
SIDNEY         MOSUNNY   68  46  45 N9        30.01F
WOLF POINT     SUNNY     74  45  35 E9G16     30.00F
MALTA            N/A     69  46  43 CALM      30.00F
PLENTYWOOD       N/A     73  36  25 NE17G25   30.00F
POPLAR           N/A     72  43  35 NE9G17    30.00F
SCOBEY           N/A     74  36  25 E16       30.00F
$$

MTZ028>42-056>058-241900-
SOUTHCENTRAL AND SOUTHEAST MONTANA

CITY           SKY/WX    TMP DP  RH WIND       PRES   REMARKS
BAKER          CLOUDY    59  51  75 E13       30.01F
BILLINGS       LGT RAIN  53  49  86 N9        30.03S
LIVINGSTON     CLOUDY    54  44  69 E15       30.04S
MILES CITY     CLOUDY    61  47  59 NE14      30.00F
BIG TIMBER       N/A     48  46  93 N6        30.07S
EKALAKA          N/A     52  49  89 NE10      29.98S
FORSYTH          N/A     61  46  59 E7        30.00S
LAUREL           N/A     54  46  74 N7        30.01F
ROUNDUP          N/A     53  48  83 N5        29.96S
$$

REGIONAL REPORTS...DAKOTAS

CITY           SKY/WX    TMP DP  RH WIND       PRES   REMARKS
WILLISTON      CLOUDY    72  43  35 E13       30.00F
MINOT          MOSUNNY   72  45  37 E10G17    29.99F
DICKINSON      CLOUDY    62  50  64 E13       29.99F
BEACH          CLOUDY    63  50  63 E8G16     30.01F
CROSBY         FAIR      73  39  29 NE10G17   30.01F
WATFORD CITY   FAIR      66  48  52 E12       29.99F
BISMARCK       CLOUDY    67  50  54 E13       29.99F
GRAND FORKS    PTSUNNY   74  48  39 SE10      30.00F
FARGO          CLOUDY    68  49  50 E13       29.99F
BUFFALO SD       N/A     55  53  93 NE18      29.92S
RAPID CITY     RAIN      54  53  97 E13       29.92S FOG
$$

REGIONAL REPORTS...WYOMING/IDAHO/WASHINGTON

CITY           SKY/WX    TMP DP  RH WIND       PRES   REMARKS
GILLETTE       CLOUDY    52  48  86 NE18G25   29.92S
SHERIDAN       RAIN      50  48  93 N10       29.98F FOG
BUFFALO WY     HVY RAIN  48  47  96 N15G24    29.97S FOG
CODY           CLOUDY    48  43  81 N13G18    30.01S
YELLOWSTONE LA   N/A     47  30  51 VRB3      30.04F
IDAHO FALLS    PTSUNNY   61  44  53 N10       29.95F
SALMON         PTSUNNY   61  43  51 N6        29.98F
BOISE          SUNNY     68  48  48 VRB6      29.93F
SPOKANE        PTSUNNY   70  50  49 CALM      29.97F
$$

REGIONAL REPORTS...ALBERTA

CITY           SKY/WX    TMP DP  RH WIND       PRES   REMARKS
EDMONTON       SUNNY     77  30  18 W5        29.98F
CALGARY        CLOUDY    70  30  23 S13G22    30.05F
LETHBRIDGE     PTSUNNY   68  41  37 VRB9      30.06F
MEDICINE HAT   PTSUNNY   73  37  27 VRB6      30.04F
$$

REGIONAL REPORTS...SASKATCHEWAN

CITY           SKY/WX    TMP DP  RH WIND       PRES   REMARKS
SWIFT CURRENT  MOSUNNY   72  28  20 E8G17     30.04F
REGINA         PTSUNNY   75  37  25 N7        30.00F
SASKATOON      MOSUNNY   77  41  27 VRB2      30.02F
$$



USA.gov is the U.S. government's official web portal to all federal, state and local government web resources and services.